Change the Weather History Date:

Saturday, January 11, 2014

  Actual Average (KHTL) Record (KHTL)
Temperature  
Mean Temperature 33 °F 18 °F  
Max Temperature 37 °F 26 °F 50 °F (2012)
Min Temperature 29 °F 10 °F -25 °F (1979)
Degree Days  
Heating Degree Days 32 47  
Month to date heating degree days 508  
Since 1 July heating degree days 3665  
Moisture  
Dew Point 33 °F    
Average Humidity 97    
Maximum Humidity 100    
Minimum Humidity 90    
Precipitation  
Precipitation 0.00 in 0.06 in 0.63 in (2013)
Month to date precipitation 0.59  
Year to date precipitation 0.59  
Snow  
Snow 0.00 in 0.60 in 6.00 in (1929)
Month to date snowfall 5.9  
Since 1 July snowfall 30.9  
Snow Depth -    
Sea Level Pressure  
Sea Level Pressure 29.37 in    
Wind  
Wind Speed 8 mph (WSW)    
Max Wind Speed 17 mph    
Max Gust Speed 31 mph    
Visibility 5 miles    
Events Rain , Snow    
T = Trace of Precipitation, MM = Missing Value Source: NWS Daily Summary

Daily Weather History Graph

Daily Weather History Graph

Search for Another Location

Airport or City:

Trip Planner

Search our weather history database for the weather conditions in past years. The results will help you decide how hot, cold, wet, or windy it might be!

Date:

Astronomy

Jan. 11, 2014 Rise Set
Actual Time 8:14 AM EST 5:19 PM EST
Civil Twilight 7:41 AM EST 5:52 PM EST
Nautical Twilight 7:05 AM EST 6:28 PM EST
Astronomical Twilight 6:30 AM EST 7:04 PM EST
Moon 2:05 PM EST (1/11) 4:16 AM EST (1/11)
Length of Visible Light 10h 11m
Length of Day
9h 05m
Waxing Gibbous, 83% of the Moon is Illuminated
Jan 11
Waxing Gibbous
Jan 15
Full
Jan 24
Last Quarter
Jan 30
New
Feb 6
First Quarter

Hourly Weather History & Observations

Time (EST) Temp. Windchill Dew Point Humidity Pressure Visibility Wind Dir Wind Speed Gust Speed Precip Events Conditions
12:15 AM 36.9 °F 30.1 °F 36.3 °F 98% 29.52 in 5.0 mi SSE 9.2 mph - N/A Rain Rain
12:34 AM 36.9 °F 31.4 °F 36.3 °F 98% 29.51 in 4.0 mi South 6.9 mph - N/A Rain Light Rain
12:55 AM 37.0 °F 32.4 °F 36.5 °F 98% 29.50 in 4.0 mi South 5.8 mph - N/A Rain Rain
1:15 AM 37.6 °F 33.1 °F 37.0 °F 98% 29.49 in 5.0 mi South 5.8 mph - N/A Rain Light Rain
1:34 AM 37.4 °F 32.1 °F 36.9 °F 98% 29.48 in 5.0 mi SSE 6.9 mph - N/A Rain Rain
1:55 AM 37.4 °F 30.8 °F 36.9 °F 98% 29.45 in 10.0 mi SSE 9.2 mph - N/A   Drizzle
2:15 AM 37.6 °F 32.3 °F 37.2 °F 99% 29.45 in 10.0 mi SSE 6.9 mph - N/A   Overcast
2:35 AM 36.5 °F 29.7 °F 36.1 °F 99% 29.45 in 7.0 mi SSE 9.2 mph - N/A   Overcast
2:55 AM 37.6 °F 31.6 °F 37.4 °F 99% 29.44 in 4.0 mi South 8.1 mph - N/A   Overcast
3:14 AM 37.4 °F 32.8 °F 37.4 °F 100% 29.43 in 4.0 mi South 5.8 mph - N/A   Overcast
3:35 AM 36.9 °F 34.3 °F 36.9 °F 100% 29.42 in 4.0 mi South 3.5 mph - N/A   Overcast
3:55 AM 37.6 °F 35.1 °F 37.4 °F 99% 29.41 in 5.0 mi South 3.5 mph - N/A   Overcast
4:15 AM 37.6 °F 33.1 °F 37.4 °F 99% 29.39 in 5.0 mi South 5.8 mph - N/A   Overcast
4:35 AM 37.4 °F 32.8 °F 37.4 °F 100% 29.37 in 2.5 mi South 5.8 mph - N/A Rain Light Rain
4:54 AM 37.4 °F 32.8 °F 37.4 °F 100% 29.37 in 4.0 mi South 5.8 mph - N/A   Overcast
5:15 AM 37.4 °F 32.8 °F 37.4 °F 100% 29.37 in 4.0 mi South 5.8 mph - N/A   Overcast
5:35 AM 37.6 °F 34.0 °F 37.6 °F 100% 29.36 in 2.5 mi South 4.6 mph - N/A   Overcast
5:55 AM 36.5 °F 31.8 °F 36.5 °F 100% 29.35 in 3.0 mi South 5.8 mph - N/A   Overcast
6:15 AM 37.0 °F 34.5 °F 37.0 °F 100% 29.35 in 3.0 mi South 3.5 mph - N/A   Overcast
6:34 AM 37.4 °F 34.9 °F 37.4 °F 100% 29.34 in 2.0 mi SSW 3.5 mph - N/A Rain Light Rain
6:55 AM 36.7 °F - 36.7 °F 100% 29.33 in 4.0 mi Calm Calm - N/A Rain Light Rain
7:15 AM 36.9 °F 34.3 °F 36.9 °F 100% 29.33 in 7.0 mi SSW 3.5 mph - N/A Rain Light Rain
7:34 AM 37.4 °F - 37.4 °F 100% 29.32 in 7.0 mi Calm Calm - N/A Rain Light Rain
7:55 AM 37.4 °F 33.8 °F 37.4 °F 100% 29.31 in 10.0 mi SSW 4.6 mph - N/A Rain Light Rain
8:15 AM 37.6 °F 34.0 °F 37.6 °F 100% 29.30 in 10.0 mi SSW 4.6 mph - N/A   Overcast
8:34 AM 37.6 °F 34.0 °F 37.6 °F 100% 29.30 in 10.0 mi SSW 4.6 mph - N/A   Overcast
8:55 AM 37.6 °F 35.1 °F 37.6 °F 100% 29.30 in 10.0 mi SSW 3.5 mph - N/A   Overcast
9:15 AM 37.6 °F 35.1 °F 37.6 °F 100% 29.29 in 10.0 mi SW 3.5 mph - N/A Rain Light Rain
9:35 AM 37.6 °F - 37.4 °F 99% 29.28 in 10.0 mi Calm Calm - N/A Rain Light Rain
9:55 AM 37.6 °F 35.1 °F 37.4 °F 99% 29.28 in 10.0 mi WSW 3.5 mph - N/A Rain Light Rain
10:14 AM 37.4 °F 34.9 °F 37.4 °F 100% 29.28 in 10.0 mi SW 3.5 mph - N/A   Light Drizzle
10:35 AM 37.2 °F 34.7 °F 36.9 °F 99% 29.28 in 10.0 mi WSW 3.5 mph - N/A   Overcast
10:54 AM 37.2 °F 31.2 °F 36.5 °F 97% 29.28 in 10.0 mi SW 8.1 mph - N/A   Overcast
11:15 AM 36.7 °F 29.9 °F 36.0 °F 97% 29.28 in 7.0 mi WSW 9.2 mph - N/A   Overcast
11:35 AM 35.6 °F 29.2 °F 35.1 °F 98% 29.27 in 1.2 mi WSW 8.1 mph - N/A Snow Light Snow
11:54 AM 35.6 °F 29.9 °F 35.1 °F 98% 29.25 in 3.0 mi West 6.9 mph - N/A   Overcast
12:15 PM 35.2 °F 28.1 °F 34.7 °F 98% 29.25 in 1.5 mi West 9.2 mph 16.1 mph N/A Snow Light Snow
12:35 PM 35.2 °F 27.6 °F 34.5 °F 97% 29.25 in 7.0 mi West 10.4 mph 17.3 mph N/A   Overcast
12:55 PM 35.1 °F 26.9 °F 33.8 °F 95% 29.25 in 5.0 mi West 11.5 mph 16.1 mph N/A   Overcast
1:15 PM 32.9 °F 24.7 °F 32.0 °F 96% 29.24 in 1.8 mi West 10.4 mph 18.4 mph N/A Snow Light Snow
1:34 PM 32.9 °F 24.1 °F 32.0 °F 96% 29.24 in 2.0 mi West 11.5 mph 16.1 mph N/A Snow Light Snow
1:55 PM 32.9 °F 24.1 °F 32.0 °F 96% 29.24 in 2.0 mi West 11.5 mph - N/A Snow Light Snow
2:15 PM 32.9 °F 25.3 °F 32.0 °F 96% 29.24 in 4.0 mi West 9.2 mph 16.1 mph N/A Snow Light Snow
2:34 PM 32.9 °F 24.1 °F 31.8 °F 96% 29.24 in 1.2 mi WNW 11.5 mph 18.4 mph N/A Snow Light Snow
2:55 PM 32.9 °F 25.3 °F 31.5 °F 94% 29.25 in 1.5 mi WNW 9.2 mph 16.1 mph N/A Snow Light Snow
3:15 PM 32.9 °F 24.7 °F 31.3 °F 94% 29.26 in 2.0 mi West 10.4 mph 16.1 mph N/A Snow Light Snow
3:34 PM 32.9 °F 24.1 °F 31.5 °F 94% 29.27 in 1.5 mi West 11.5 mph - N/A Snow Light Snow
3:55 PM 32.9 °F 25.3 °F 31.5 °F 94% 29.29 in 1.8 mi WNW 9.2 mph 16.1 mph N/A Snow Light Snow
4:15 PM 32.9 °F 23.7 °F 31.5 °F 94% 29.30 in 1.0 mi WNW 12.7 mph 18.4 mph N/A Snow Light Snow
4:34 PM 32.7 °F 25.0 °F 31.6 °F 96% 29.32 in 1.8 mi WNW 9.2 mph 16.1 mph N/A Snow Light Snow
4:55 PM 32.4 °F 21.3 °F 31.1 °F 95% 29.34 in 3.0 mi WNW 17.3 mph 21.9 mph N/A Snow Light Snow
5:15 PM 31.5 °F 21.4 °F 29.3 °F 92% 29.36 in 7.0 mi WNW 13.8 mph 26.5 mph N/A   Overcast
5:35 PM 31.1 °F 20.5 °F 29.1 °F 92% 29.37 in 2.5 mi West 15.0 mph 21.9 mph N/A Snow Light Snow
5:55 PM 30.6 °F 20.2 °F 28.4 °F 92% 29.37 in 7.0 mi West 13.8 mph 24.2 mph N/A   Overcast
6:15 PM 30.6 °F 20.7 °F 28.2 °F 91% 29.39 in 10.0 mi West 12.7 mph 24.2 mph N/A   Overcast
6:35 PM 30.0 °F 18.3 °F 27.3 °F 90% 29.40 in 7.0 mi West 17.3 mph 25.3 mph N/A   Overcast
6:55 PM 30.6 °F 19.4 °F 27.9 °F 90% 29.41 in 5.0 mi WNW 16.1 mph 31.1 mph N/A   Overcast
7:15 PM 30.6 °F 22.4 °F 28.4 °F 92% 29.42 in 5.0 mi West 9.2 mph 18.4 mph N/A   Overcast
7:35 PM 30.2 °F 21.3 °F 28.2 °F 92% 29.43 in 5.0 mi West 10.4 mph 20.7 mph N/A   Overcast
7:55 PM 29.7 °F 20.7 °F 27.7 °F 92% 29.43 in 4.0 mi West 10.4 mph 18.4 mph N/A   Overcast
8:14 PM 29.3 °F 21.5 °F 27.7 °F 94% 29.44 in 4.0 mi West 8.1 mph 20.7 mph N/A   Overcast
8:35 PM 29.3 °F 20.8 °F 28.0 °F 95% 29.45 in 3.0 mi West 9.2 mph 18.4 mph N/A   Overcast
8:55 PM 29.5 °F 19.9 °F 28.2 °F 95% 29.46 in 3.0 mi West 11.5 mph 18.4 mph N/A   Overcast
9:14 PM 29.3 °F 19.6 °F 27.9 °F 94% 29.47 in 3.0 mi West 11.5 mph 19.6 mph N/A   Overcast
9:35 PM 29.3 °F 20.2 °F 28.2 °F 96% 29.48 in 4.0 mi West 10.4 mph - N/A   Overcast
9:55 PM 30.2 °F 21.3 °F 28.9 °F 95% 29.48 in 5.0 mi West 10.4 mph 17.3 mph N/A   Overcast
10:14 PM 30.4 °F 20.5 °F 29.1 °F 95% 29.49 in 7.0 mi West 12.7 mph - N/A   Overcast
10:35 PM 29.1 °F 21.3 °F 27.5 °F 94% 29.50 in 7.0 mi West 8.1 mph - N/A   Overcast
10:55 PM 30.6 °F 22.4 °F 28.9 °F 94% 29.51 in 7.0 mi West 9.2 mph 16.1 mph N/A   Overcast
11:14 PM 30.6 °F 23.1 °F 28.4 °F 92% 29.52 in 10.0 mi West 8.1 mph 16.1 mph N/A   Overcast
11:35 PM 30.6 °F 22.4 °F 28.8 °F 93% 29.52 in 5.0 mi West 9.2 mph - N/A   Overcast
11:55 PM 30.6 °F 23.8 °F 29.1 °F 94% 29.54 in 3.0 mi West 6.9 mph - N/A   Overcast